Location: Kitchener-Waterloo
(43.4500°N, 80.5000°W)
Time: 16:58:16
(UTC-04:00)

Amateur Radio Satellites - All Passes

Search period start: 24 April 2017 16:28
Search period end: 25 April 2017 16:28
Location: Kitchener-Waterloo, 43.4500°N, 80.5000°W

Satellite Date Start Highest point End Downlink Frequencies (MHz)
Time Altitude Azimuth
ITAMSAT 1 24 Apr 16:29:27 16:34:19 41° 262° (W) 16:39:13 435.822/435.867
CUBESAT XI-V 24 Apr 16:46:18 16:48:02 12° 88° (E) 16:49:45 437.345
YUBILEINY 24 Apr 16:46:34 16:55:22 87° 264° (W) 17:04:10 435.215
Tancredo 1 24 Apr 16:55:11 16:57:50 25° 223° (SW) 17:00:27 437.200
ISS 24 Apr 16:57:32 17:00:30 33° 221° (SW) 17:03:27 437.550
SO-50 24 Apr 17:09:31 17:13:45 41° 243° (WSW) 17:17:58 436.795
DOVE 4 24 Apr 17:15:06 17:19:02 22° 64° (ENE) 17:22:57 437.250
CUTE-I 24 Apr 17:21:01 17:24:13 16° 59° (ENE) 17:27:25 437.470
BEESAT 24 Apr 17:21:51 17:26:01 31° 293° (WNW) 17:30:10 436.000
RS-15 24 Apr 17:28:37 17:41:00 87° 57° (ENE) 17:52:44 29.354- 29.394
MOZHAYETS 4 24 Apr 17:37:16 17:41:33 39° 290° (WNW) 17:45:49
XW-2D 24 Apr 17:57:11 18:00:16 25° 69° (ENE) 18:03:23 145.860 - 145.880
BEESAT 2 24 Apr 17:59:46 18:00:59 11° 326° (NW) 18:02:12 435.950
HO-68 24 Apr 18:00:30 18:04:36 16° 51° (NE) 18:08:42 435.675
ITUPSAT 1 24 Apr 18:01:59 18:04:36 15° 300° (WNW) 18:07:12 437.325
XW-2B 24 Apr 18:03:52 18:07:06 28° 70° (ENE) 18:10:22 145.730 - 145.750
AO-7 24 Apr 18:06:34 18:10:57 15° 272° (W) 18:15:23 .
KKS-1 24 Apr 18:07:17 18:11:45 81° 104° (ESE) 18:16:11 437.445
LilacSat-2 24 Apr 18:11:40 18:15:09 37° 71° (ENE) 18:18:39 437.200
XW-2C 24 Apr 18:15:21 18:18:51 39° 72° (ENE) 18:22:23 145.795 - 145.815
KAITUO 1B 24 Apr 18:19:15 18:22:36 34° 71° (ENE) 18:25:59 145.475/437.950
CUBESAT XI-V 24 Apr 18:21:12 18:25:56 76° 285° (WNW) 18:30:38 437.345
XW-2F 24 Apr 18:42:29 18:46:11 84° 77° (ENE) 18:49:57 145.980 - 146.000
YUBILEINY 24 Apr 18:45:28 18:50:51 18° 284° (WNW) 18:56:13 435.215
STARS 24 Apr 18:46:00 18:50:24 88° 285° (WNW) 18:54:45 437.465
DOVE 4 24 Apr 18:51:06 18:56:18 56° 261° (W) 19:01:28 437.250
CUTE-I 24 Apr 18:58:17 19:03:38 77° 257° (WSW) 19:09:00 437.470
NUDT-PHONESAT 24 Apr 19:01:30 19:05:09 68° 259° (W) 19:08:49 437.300
XW-2D 24 Apr 19:31:25 19:34:25 23° 265° (W) 19:37:27 145.860 - 145.880
STRAND 1 24 Apr 19:36:33 19:39:25 15° 90° (E) 19:42:17 437.568
CUTE 1.7 + AOD 2 24 Apr 19:38:22 19:42:24 48° 72° (ENE) 19:46:29 437.475
XW-2B 24 Apr 19:38:32 19:41:20 20° 266° (W) 19:44:08 145.730 - 145.750
RS-15 24 Apr 19:42:37 19:51:52 27° 259° (W) 20:00:51 29.354- 29.394
AAUSAT CUBESAT 2 24 Apr 19:44:02 19:46:53 18° 65° (ENE) 19:49:45 437.432
HO-68 24 Apr 19:44:02 19:51:09 75° 71° (ENE) 19:58:19 435.675
KKS-1 24 Apr 19:46:07 19:47:39 12° 301° (WNW) 19:49:10 437.445
LilacSat-2 24 Apr 19:47:19 19:49:36 15° 268° (W) 19:51:53 437.200
XW-2A 24 Apr 19:49:11 19:52:32 68° 75° (ENE) 19:55:52 145.665 - 145.685
XW-2C 24 Apr 19:51:08 19:53:14 14° 268° (W) 19:55:22 145.795 - 145.815
KAITUO 1B 24 Apr 19:54:25 19:56:45 16° 268° (W) 19:59:05 145.475/437.950
SEEDS 24 Apr 20:02:53 20:06:59 58° 74° (ENE) 20:11:08 437.485
Oscar 11 24 Apr 20:05:02 20:06:59 13° 62° (ENE) 20:08:58 .
O/OREOS (USA 219) 24 Apr 20:05:12 20:08:31 19° 53° (NE) 20:11:49 437.305
UWE-3 24 Apr 20:11:25 20:15:12 31° 70° (ENE) 20:18:57 435.000/436.395/437.385
CUBEBUG 2 24 Apr 20:18:58 20:23:19 63° 75° (ENE) 20:27:34 437.445
STARS 24 Apr 20:25:57 20:26:01 10° 302° (WNW) 20:26:05 437.465
M-CUBED/EXP-1 PRIME 24 Apr 20:38:10 20:42:14 41° 103° (ESE) 20:45:59 437.505
DELFI C3 24 Apr 20:51:17 20:52:15 11° 61° (ENE) 20:53:14 145.870
NO-84 24 Apr 21:09:15 21:12:51 62° 137° (SE) 21:16:07 435.350 FM
AO-85 24 Apr 21:09:56 21:12:20 15° 40° (NE) 21:14:46 145.980
ZACube-1 24 Apr 21:11:42 21:15:55 83° 78° (ENE) 21:20:06 437.345
STRAND 1 24 Apr 21:14:00 21:19:05 69° 287° (WNW) 21:24:09 437.568
CUTE 1.7 + AOD 2 24 Apr 21:16:00 21:18:30 15° 269° (W) 21:21:02 437.475
AAUSAT CUBESAT 2 24 Apr 21:18:07 21:22:02 41° 262° (W) 21:25:59 437.432
AO-73 24 Apr 21:19:59 21:24:12 88° 267° (W) 21:28:21 145.935
HO-68 24 Apr 21:34:20 21:39:32 21° 269° (W) 21:44:47 435.675
Oscar 11 24 Apr 21:38:18 21:42:34 67° 259° (WSW) 21:46:52 .
SEEDS 24 Apr 21:41:14 21:43:04 13° 271° (W) 21:44:53 437.485
O/OREOS (USA 219) 24 Apr 21:43:48 21:48:15 52° 252° (WSW) 21:52:40 437.305
UWE-3 24 Apr 21:48:14 21:51:41 23° 266° (W) 21:55:06 435.000/436.395/437.385
CUBEBUG 2 24 Apr 21:58:31 22:00:19 12° 270° (W) 22:02:06 437.445
OBJECT BX 24 Apr 22:03:24 22:06:54 49° 74° (ENE) 22:10:26 145.990 - 145.960
M-CUBED/EXP-1 PRIME 24 Apr 22:13:12 22:16:19 20° 302° (WNW) 22:19:18 437.505
FO-29 24 Apr 22:21:34 22:23:32 12° 89° (E) 22:25:32 435.910
DELFI C3 24 Apr 22:22:29 22:26:27 71° 258° (WSW) 22:30:27 145.870
TIGRISAT 24 Apr 22:42:32 22:45:50 22° 94° (E) 22:49:09 435.000
ESTCUBE 1 24 Apr 22:42:46 22:45:22 15° 62° (ENE) 22:47:58 437.505/2401.250
NO-84 24 Apr 22:47:52 22:50:35 22° 334° (NNW) 22:53:07 435.350 FM
AO-85 24 Apr 22:49:11 22:53:08 71° 239° (WSW) 22:57:15 145.980
BEESAT 2 24 Apr 22:58:24 23:00:50 15° 39° (NE) 23:03:14 435.950
UNISAT 6 24 Apr 23:02:34 23:06:35 38° 98° (E) 23:10:35 437.425
BEESAT 3 24 Apr 23:03:55 23:07:34 32° 48° (NE) 23:11:12 437.485
PRISM 24 Apr 23:10:45 23:14:57 77° 104° (ESE) 23:19:04 437.425
LO-87 24 Apr 23:14:38 23:18:08 48° 74° (ENE) 23:21:40 145.935 - 145.965
OBJECT BX 24 Apr 23:39:48 23:40:53 11° 270° (W) 23:41:59 145.990 - 145.960
FO-29 25 Apr 00:04:05 00:09:17 80° 286° (WNW) 00:14:43 435.910
50 SAT 25 Apr 00:04:57 00:06:43 13° 65° (ENE) 00:08:30 437.505
DX 1 25 Apr 00:05:27 00:07:25 13° 60° (ENE) 00:09:23 434.975-435.025
NANOSAT C BR1 25 Apr 00:13:13 00:15:39 15° 91° (E) 00:18:03 145.865
ESTCUBE 1 25 Apr 00:17:13 00:21:40 61° 259° (W) 00:26:10 437.505/2401.250
TIGRISAT 25 Apr 00:18:45 00:22:37 34° 290° (WNW) 00:26:30 435.000
SPROUT 25 Apr 00:23:07 00:27:07 40° 71° (ENE) 00:31:09 437.525
NO-84 25 Apr 00:28:40 00:29:03 10° 355° (N) 00:29:25 435.350 FM
BEESAT 2 25 Apr 00:35:02 00:39:06 79° 239° (WSW) 00:43:08 435.950
EO-79 25 Apr 00:38:34 00:42:18 31° 96° (E) 00:46:02 145.935-145.965
VELOX 1 25 Apr 00:39:45 00:44:11 69° 74° (ENE) 00:48:38 145.980
UNISAT 6 25 Apr 00:39:53 00:43:03 20° 294° (WNW) 00:46:14 437.425
BEESAT 3 25 Apr 00:41:41 00:45:03 26° 246° (WSW) 00:48:23 437.485
DUCHIFAT 1 25 Apr 00:43:16 00:46:53 28° 96° (E) 00:50:29 145.980
PRISM 25 Apr 00:48:29 00:49:35 11° 300° (WNW) 00:50:41 437.425
LO-87 25 Apr 00:50:36 00:51:51 11° 270° (W) 00:53:07 145.935 - 145.965
AIST 2D 25 Apr 01:06:53 01:10:19 52° 285° (WNW) 01:13:45 435.315
UKube-1 25 Apr 01:10:25 01:14:27 40° 70° (ENE) 01:18:31 .
POLYITAN 1 25 Apr 01:16:50 01:21:03 84° 103° (ESE) 01:25:15 437.675
QB50P2 25 Apr 01:23:21 01:27:33 76° 286° (WNW) 01:31:45 145.880/145.840
50 SAT 25 Apr 01:36:02 01:39:18 39° 261° (W) 01:42:39 437.505
DX 1 25 Apr 01:38:39 01:43:01 72° 258° (WSW) 01:47:25 434.975-435.025
Oscar 19 25 Apr 01:41:32 01:44:37 16° 90° (E) 01:47:41 437.125/150
NANOSAT C BR1 25 Apr 01:47:35 01:51:37 48° 288° (WNW) 01:55:38 145.865
FO-29 25 Apr 01:52:17 01:53:35 11° 304° (NW) 01:54:53 435.910
BUGSAT 1 25 Apr 01:53:28 01:57:25 54° 100° (E) 02:01:21 437.445
ITUPSAT 1 25 Apr 01:55:59 01:57:51 12° 58° (ENE) 01:59:42 437.325
SPROUT 25 Apr 02:00:11 02:03:12 19° 267° (W) 02:06:13 437.525
NO-84 25 Apr 02:05:57 02:07:41 14° 18° (NNE) 02:09:22 435.350 FM
PCSat 25 Apr 02:08:18 02:10:41 13° 103° (ESE) 02:13:05 145.827
EO-79 25 Apr 02:14:34 02:17:56 24° 293° (WNW) 02:21:17 145.935-145.965
DUCHIFAT 1 25 Apr 02:19:01 02:22:28 25° 292° (WNW) 02:25:54 145.980
VELOX 1 25 Apr 02:19:21 02:21:05 12° 271° (W) 02:22:50 145.980
UKube-1 25 Apr 02:47:28 02:50:37 20° 267° (W) 02:53:48 .
BEESAT 25 Apr 02:51:22 02:55:47 40° 69° (ENE) 03:00:13 436.000
POLYITAN 1 25 Apr 02:55:49 02:56:10 10° 300° (WNW) 02:56:31 437.675
MOZHAYETS 4 25 Apr 03:03:41 03:07:20 25° 66° (ENE) 03:11:01
Gurwin Techsat 1B 25 Apr 03:04:23 03:09:37 53° 100° (E) 03:14:47 435.225
Oscar 19 25 Apr 03:19:14 03:24:26 68° 287° (WNW) 03:29:35 437.125/150
ITUPSAT 1 25 Apr 03:30:12 03:34:57 87° 252° (WSW) 03:39:45 437.325
BUGSAT 1 25 Apr 03:30:19 03:32:20 14° 297° (WNW) 03:34:20 437.445
KKS-1 25 Apr 03:34:18 03:34:40 10° 58° (ENE) 03:35:02 437.445
NO-84 25 Apr 03:42:46 03:45:40 73° 38° (NE) 03:48:30 435.350 FM
PCSat 25 Apr 03:47:50 03:53:16 89° 299° (WNW) 03:58:45 145.827
CUBESAT XI-V 25 Apr 03:50:36 03:53:05 14° 61° (ENE) 03:55:34 437.345
YUBILEINY 25 Apr 03:55:08 04:01:20 22° 79° (ENE) 04:07:30 435.215
AO-7 25 Apr 04:09:16 04:16:37 34° 97° (E) 04:23:57 .
STARS 25 Apr 04:10:57 04:11:59 11° 59° (ENE) 04:13:03 437.465
BEESAT 25 Apr 04:29:57 04:33:41 23° 266° (W) 04:37:27 436.000
MOZHAYETS 4 25 Apr 04:40:09 04:44:19 35° 263° (W) 04:48:31
ITAMSAT 1 25 Apr 04:40:36 04:45:45 64° 102° (ESE) 04:50:52 435.822/435.867
Gurwin Techsat 1B 25 Apr 04:45:09 04:49:11 22° 298° (WNW) 04:53:11 435.225
Oscar 19 25 Apr 05:02:30 05:02:46 10° 305° (NW) 05:03:02 437.125/150
KKS-1 25 Apr 05:05:59 05:10:28 85° 74° (ENE) 05:14:58 437.445
CUBESAT XI-V 25 Apr 05:25:14 05:29:52 69° 259° (W) 05:34:33 437.345
PCSat 25 Apr 05:33:45 05:37:27 18° 321° (NW) 05:41:10 145.827
STARS 25 Apr 05:43:13 05:47:38 88° 256° (WSW) 05:52:05 437.465
YUBILEINY 25 Apr 05:48:23 05:57:04 80° 279° (W) 06:05:50 435.215
AO-7 25 Apr 06:01:39 06:09:44 58° 296° (WNW) 06:17:49 .
ITAMSAT 1 25 Apr 06:21:14 06:24:43 18° 300° (WNW) 06:28:11 435.822/435.867
NUDT-PHONESAT 25 Apr 06:33:26 06:33:54 10° 90° (E) 06:34:23 437.300
DOVE 4 25 Apr 06:49:31 06:53:53 37° 96° (E) 06:57:59 437.250
STRAND 1 25 Apr 06:53:04 06:57:12 25° 64° (ENE) 07:01:21 437.568
XW-2D 25 Apr 07:02:00 07:05:25 31° 97° (E) 07:08:50 145.860 - 145.880
XW-2B 25 Apr 07:08:48 07:12:20 36° 98° (E) 07:15:52 145.730 - 145.750
HO-68 25 Apr 07:13:44 07:16:12 12° 86° (E) 07:18:39 435.675
CUTE-I 25 Apr 07:14:18 07:19:16 38° 98° (E) 07:24:11 437.470
LilacSat-2 25 Apr 07:17:27 07:21:11 49° 99° (E) 07:24:55 437.200
XW-2C 25 Apr 07:20:28 07:24:12 51° 100° (E) 07:27:55 145.795 - 145.815
KAITUO 1B 25 Apr 07:22:47 07:26:23 42° 99° (E) 07:29:59 145.475/437.950
M-CUBED/EXP-1 PRIME 25 Apr 07:23:45 07:28:18 66° 69° (ENE) 07:32:58 437.505
SO-50 25 Apr 07:24:14 07:28:39 46° 118° (ESE) 07:33:03 436.795
XW-2F 25 Apr 07:47:21 07:51:09 76° 284° (WNW) 07:54:57 145.980 - 146.000
YUBILEINY 25 Apr 07:50:01 07:55:27 18° 302° (WNW) 08:00:55 435.215
RS-15 25 Apr 07:52:05 08:03:29 52° 111° (ESE) 08:15:12 29.354- 29.394
AO-7 25 Apr 07:56:37 08:00:47 15° 317° (NW) 08:04:58 .
NUDT-PHONESAT 25 Apr 08:04:31 08:08:10 56° 285° (WNW) 08:11:48 437.300
CUBEBUG 2 25 Apr 08:10:44 08:11:54 11° 89° (E) 08:13:05 437.445
DOVE 4 25 Apr 08:27:38 08:31:19 23° 295° (WNW) 08:34:51 437.250
STRAND 1 25 Apr 08:31:18 08:36:08 42° 261° (W) 08:41:00 437.568
XW-2D 25 Apr 08:36:37 08:39:25 20° 293° (WNW) 08:42:12 145.860 - 145.880
XW-2A 25 Apr 08:42:27 08:45:47 60° 101° (E) 08:49:06 145.665 - 145.685
XW-2B 25 Apr 08:43:42 08:46:15 17° 294° (WNW) 08:48:49 145.730 - 145.750
LilacSat-2 25 Apr 08:53:07 08:55:04 14° 296° (WNW) 08:57:00 437.200
CUTE-I 25 Apr 08:54:37 08:59:10 29° 295° (WNW) 09:03:41 437.470
XW-2C 25 Apr 08:56:11 08:57:59 13° 296° (WNW) 08:59:46 145.795 - 145.815
CUTE 1.7 + AOD 2 25 Apr 08:57:24 09:01:42 84° 100° (E) 09:06:00 437.475
KAITUO 1B 25 Apr 08:57:53 09:00:03 15° 295° (WNW) 09:02:13 145.475/437.950
HO-68 25 Apr 08:57:55 09:05:08 71° 104° (ESE) 09:12:18 435.675
AAUSAT CUBESAT 2 25 Apr 08:59:03 09:02:38 27° 95° (E) 09:06:12 437.432
ZACube-1 25 Apr 08:59:57 09:02:12 14° 91° (E) 09:04:29 437.345
M-CUBED/EXP-1 PRIME 25 Apr 09:00:30 09:03:07 15° 265° (W) 09:05:45 437.505
SO-50 25 Apr 09:05:28 09:09:19 26° 317° (NW) 09:13:09 436.795
AO-73 25 Apr 09:07:38 09:10:11 16° 91° (E) 09:12:45 145.935
SEEDS 25 Apr 09:20:49 09:25:07 83° 282° (WNW) 09:29:22 437.485
Oscar 11 25 Apr 09:24:55 09:28:11 20° 93° (E) 09:31:27 .
Tancredo 1 25 Apr 09:29:27 09:32:23 39° 140° (SE) 09:35:18 437.200
UWE-3 25 Apr 09:35:16 09:39:23 59° 101° (E) 09:43:34 435.000/436.395/437.385
ISS 25 Apr 09:37:47 09:40:48 37° 140° (SE) 09:43:51 437.550
TIGRISAT 25 Apr 09:42:22 09:45:48 23° 67° (ENE) 09:49:12 435.000
CUBEBUG 2 25 Apr 09:44:50 09:48:57 64° 286° (WNW) 09:53:06 437.445
DELFI C3 25 Apr 09:59:53 10:01:52 13° 90° (E) 10:03:52 145.870
PRISM 25 Apr 10:00:38 10:04:43 63° 74° (ENE) 10:08:52 437.425
UNISAT 6 25 Apr 10:02:18 10:06:23 39° 71° (ENE) 10:10:25 437.425
RS-15 25 Apr 10:04:05 10:16:00 57° 315° (NW) 10:28:11 29.354- 29.394
FO-29 25 Apr 10:16:58 10:23:04 50° 71° (ENE) 10:28:31 435.910
O/OREOS (USA 219) 25 Apr 10:19:44 10:22:27 16° 99° (E) 10:25:10 437.305
AAUSAT CUBESAT 2 25 Apr 10:34:29 10:38:02 27° 291° (WNW) 10:41:33 437.432
ZACube-1 25 Apr 10:34:42 10:38:47 52° 287° (WNW) 10:42:56 437.345
CUTE 1.7 + AOD 2 25 Apr 10:36:02 10:36:52 10° 300° (WNW) 10:37:42 437.475
AO-73 25 Apr 10:42:38 10:46:40 47° 288° (WNW) 10:50:45 145.935
HO-68 25 Apr 10:46:36 10:52:13 26° 303° (WNW) 10:57:51 435.675
PCSat 25 Apr 10:52:10 10:55:57 19° 40° (NE) 10:59:43 145.827
Oscar 11 25 Apr 11:00:25 11:04:26 38° 290° (WNW) 11:08:27 .
OBJECT BX 25 Apr 11:04:27 11:08:03 55° 100° (E) 11:11:39 145.990 - 145.960
Tancredo 1 25 Apr 11:05:28 11:08:20 32° 338° (NNW) 11:11:11 437.200
NANOSAT C BR1 25 Apr 11:06:53 11:09:06 14° 62° (ENE) 11:11:18 145.865
UWE-3 25 Apr 11:13:20 11:15:24 13° 297° (WNW) 11:17:27 435.000/436.395/437.385
ISS 25 Apr 11:14:16 11:17:18 35° 338° (NNW) 11:20:21 437.550
TIGRISAT 25 Apr 11:18:17 11:22:19 35° 263° (W) 11:26:17 435.000
EO-79 25 Apr 11:32:00 11:35:35 27° 68° (ENE) 11:39:09 145.935-145.965
DELFI C3 25 Apr 11:33:03 11:36:57 50° 287° (WNW) 11:40:49 145.870
DUCHIFAT 1 25 Apr 11:36:09 11:39:35 25° 67° (ENE) 11:43:01 145.980
PRISM 25 Apr 11:38:55 11:40:25 12° 270° (W) 11:41:55 437.425
UNISAT 6 25 Apr 11:40:00 11:43:14 20° 267° (W) 11:46:27 437.425
AIST 2D 25 Apr 11:41:56 11:45:21 59° 75° (ENE) 11:48:47 435.315
O/OREOS (USA 219) 25 Apr 11:56:51 12:01:21 56° 296° (WNW) 12:05:54 437.305
FO-29 25 Apr 12:03:06 12:08:19 26° 265° (W) 12:13:05 435.910
ESTCUBE 1 25 Apr 12:08:49 12:12:37 25° 95° (E) 12:16:22 437.505/2401.250
POLYITAN 1 25 Apr 12:10:02 12:14:14 71° 74° (ENE) 12:18:26 437.675
LO-87 25 Apr 12:13:46 12:17:15 50° 100° (E) 12:20:43 145.935 - 145.965
QB50P2 25 Apr 12:16:31 12:20:44 89° 226° (SW) 12:25:00 145.880/145.840
RS-15 25 Apr 12:21:50 12:32:04 29° 347° (NNW) 12:42:17 29.354- 29.394
VELOX 1 25 Apr 12:30:46 12:32:21 12° 89° (E) 12:33:56 145.980
PCSat 25 Apr 12:34:38 12:40:06 88° 240° (WSW) 12:45:32 145.827
OBJECT BX 25 Apr 12:40:07 12:41:16 11° 297° (WNW) 12:42:26 145.990 - 145.960
NANOSAT C BR1 25 Apr 12:40:11 12:44:20 58° 259° (W) 12:48:29 145.865
Tancredo 1 25 Apr 12:42:41 12:44:54 18° 358° (N) 12:47:07 437.200
BUGSAT 1 25 Apr 12:43:51 12:47:48 44° 72° (ENE) 12:51:43 437.445
Gurwin Techsat 1B 25 Apr 12:49:58 12:52:41 14° 58° (ENE) 12:55:25 435.225
ISS 25 Apr 12:52:00 12:54:26 19° 358° (N) 12:56:51 437.550
Oscar 19 25 Apr 12:59:02 13:03:17 27° 65° (ENE) 13:07:34 437.125/150
50 SAT 25 Apr 13:00:11 13:01:14 11° 91° (E) 13:02:17 437.505
AO-85 25 Apr 13:05:06 13:08:39 26° 115° (ESE) 13:12:04 145.980
EO-79 25 Apr 13:07:41 13:11:17 27° 265° (W) 13:14:54 145.935-145.965
DUCHIFAT 1 25 Apr 13:11:28 13:15:09 29° 264° (W) 13:18:50 145.980
AO-7 25 Apr 13:22:53 13:26:19 13° 41° (NE) 13:29:46 .
DX 1 25 Apr 13:26:34 13:29:33 18° 93° (E) 13:32:31 434.975-435.025
SPROUT 25 Apr 13:43:01 13:47:15 67° 101° (E) 13:51:28 437.525
ESTCUBE 1 25 Apr 13:45:21 13:49:26 33° 291° (WNW) 13:53:30 437.505/2401.250
LO-87 25 Apr 13:49:01 13:50:15 11° 297° (WNW) 13:51:29 145.935 - 145.965
POLYITAN 1 25 Apr 13:49:49 13:50:29 10° 271° (W) 13:51:08 437.675
YUBILEINY 25 Apr 14:03:55 14:06:31 11° 52° (NE) 14:09:09 435.215
VELOX 1 25 Apr 14:04:51 14:09:17 69° 285° (WNW) 14:13:39 145.980
SO-50 25 Apr 14:15:36 14:17:17 12° 31° (NNE) 14:19:00 436.795
Tancredo 1 25 Apr 14:18:49 14:21:32 27° 18° (NNE) 14:24:15 437.200
PCSat 25 Apr 14:20:30 14:22:39 12° 258° (WSW) 14:24:49 145.827
BUGSAT 1 25 Apr 14:20:44 14:23:21 16° 268° (W) 14:25:58 437.445
ITAMSAT 1 25 Apr 14:22:59 14:26:02 16° 59° (ENE) 14:29:06 435.822/435.867
Gurwin Techsat 1B 25 Apr 14:26:33 14:31:53 87° 257° (WSW) 14:37:15 435.225
ISS 25 Apr 14:28:46 14:31:38 28° 18° (NNE) 14:34:30 437.550
BEESAT 2 25 Apr 14:29:22 14:31:09 13° 109° (ESE) 14:32:58 435.950
50 SAT 25 Apr 14:31:04 14:34:26 45° 287° (WNW) 14:37:45 437.505
UKube-1 25 Apr 14:31:44 14:36:02 61° 102° (ESE) 14:40:18 .
BEESAT 3 25 Apr 14:31:47 14:35:23 35° 117° (ESE) 14:39:03 437.485
Oscar 19 25 Apr 14:37:32 14:42:23 41° 262° (W) 14:47:18 437.125/150
RS-15 25 Apr 14:38:59 14:49:43 32° 22° (NNE) 15:00:09 29.354- 29.394
AO-85 25 Apr 14:45:05 14:48:55 34° 311° (NW) 14:52:38 145.980
DX 1 25 Apr 15:01:47 15:05:57 44° 289° (WNW) 15:10:04 434.975-435.025
AO-7 25 Apr 15:09:17 15:17:11 52° 63° (ENE) 15:25:08 .
SPROUT 25 Apr 15:20:48 15:22:37 13° 299° (WNW) 15:24:26 437.525
ITUPSAT 1 25 Apr 15:30:08 15:33:49 22° 94° (E) 15:37:29 437.325
SO-50 25 Apr 15:54:16 15:58:44 57° 52° (NE) 16:03:10 436.795
Tancredo 1 25 Apr 15:54:34 15:57:38 58° 216° (SW) 16:00:40 437.200
YUBILEINY 25 Apr 15:57:05 16:05:41 56° 76° (ENE) 16:14:17 435.215
ITAMSAT 1 25 Apr 15:59:41 16:04:53 76° 257° (WSW) 16:10:05 435.822/435.867
BEESAT 2 25 Apr 16:04:27 16:08:23 62° 306° (NW) 16:12:24 435.950
ISS 25 Apr 16:05:06 16:08:18 62° 216° (SW) 16:11:31 437.550
UKube-1 25 Apr 16:09:16 16:11:33 14° 299° (WNW) 16:13:50 .
BEESAT 3 25 Apr 16:09:44 16:13:03 25° 315° (NW) 16:16:24 437.485
Gurwin Techsat 1B 25 Apr 16:11:06 16:12:35 11° 273° (W) 16:14:04 435.225
